| time (UTC) | temp C | wind direction | speed KPH | gust KPH | rain 1hr cm | rain 24hr cm | rain mn cm | humidity % | barometer mb |
| 20260902115738 | 25 | 0.0 | 0.0 | 0.00 | 0.00 | 0.00 | 57 | 1022.2 | |
| 20260902114232 | 24 | 0.0 | 0.0 | 0.00 | 0.00 | 0.00 | 56 | 1022.3 | |
| 20260902112728 | 24 | 0.0 | 0.0 | 0.00 | 0.00 | 0.00 | 59 | 1022.4 | |
| 20260902111223 | 23 | 0.0 | 0.0 | 0.00 | 0.00 | 0.00 | 60 | 1022.6 | |
| 20260902105717 | 23 | 0.0 | 0.0 | 0.00 | 0.00 | 0.00 | 61 | 1022.6 | |
| 20260902104212 | 23 | 0.0 | 0.0 | 0.00 | 0.00 | 0.00 | 62 | 1023.0 | |
| 20260902102706 | 22 | 0.0 | 0.0 | 0.00 | 0.00 | 0.00 | 65 | 1023.0 | |
| 20260902101200 | 22 | 0.0 | 0.0 | 0.00 | 0.00 | 0.00 | 67 | 1023.1 | |
| 20260902095654 | 21 | 0.0 | 0.0 | 0.00 | 0.00 | 0.00 | 68 | 1023.2 | |
| 20260902094149 | 21 | 0.0 | 0.0 | 0.00 | 0.00 | 0.00 | 69 | 1023.2 | |
| 20260902092645 | 20 | 0.0 | 0.0 | 0.00 | 0.00 | 0.00 | 71 | 1023.5 | |
| 20260902091139 | 20 | 0.0 | 0.0 | 0.00 | 0.00 | 0.00 | 72 | 1023.1 | |
| 20260902085634 | 20 | 0.0 | 0.0 | 0.00 | 0.00 | 0.00 | 72 | 1023.3 | |
| 20260902084128 | 18 | 0.0 | 0.0 | 0.00 | 0.00 | 0.00 | 72 | 1023.1 | |
| 20260902082622 | 18 | 0.0 | 0.0 | 0.00 | 0.00 | 0.00 | 74 | 1023.2 | |
| 20260902081118 | 18 | 0.0 | 0.0 | 0.00 | 0.00 | 0.00 | 75 | 1023.0 | |
| 20260902075612 | 17 | 0.0 | 0.0 | 0.00 | 0.00 | 0.00 | 75 | 1022.8 | |
| 20260902074107 | 17 | 0.0 | 0.0 | 0.00 | 0.00 | 0.00 | 77 | 1023.0 | |
| 20260902072601 | 17 | 0.0 | 0.0 | 0.00 | 0.00 | 0.00 | 78 | 1022.9 | |
| 20260902071056 | 16 | 0.0 | 0.0 | 0.00 | 0.00 | 0.00 | 79 | 1023.1 | |
| 20260902065550 | 16 | 0.0 | 0.0 | 0.00 | 0.00 | 0.00 | 79 | 1023.0 | |
| 20260902064045 | 16 | 0.0 | 0.0 | 0.00 | 0.00 | 0.00 | 79 | 1022.8 | |
| 20260902062540 | 15 | 0.0 | 0.0 | 0.00 | 0.00 | 0.00 | 80 | 1023.0 | |
| 20260902061035 | 15 | 0.0 | 0.0 | 0.00 | 0.00 | 0.00 | 81 | 1023.0 | |
| 20260902055529 | 15 | 0.0 | 0.0 | 0.00 | 0.00 | 0.00 | 81 | 1023.0 | |
| 20260902054024 | 15 | 0.0 | 0.0 | 0.00 | 0.00 | 0.00 | 82 | 1022.8 | |
| 20260902052518 | 14 | 0.0 | 0.0 | 0.00 | 0.00 | 0.00 | 83 | 1022.6 | |
| 20260902051013 | 14 | 0.0 | 0.0 | 0.00 | 0.00 | 0.00 | 82 | 1022.6 | |
| 20260902045507 | 14 | 0.0 | 0.0 | 0.00 | 0.00 | 0.00 | 83 | 1022.5 | |
| 20260902044002 | 14 | 0.0 | 0.0 | 0.00 | 0.00 | 0.00 | 83 | 1022.3 | |
| 20260902042456 | 14 | 0.0 | 0.0 | 0.00 | 0.00 | 0.00 | 82 | 1022.2 | |
| 20260902040951 | 14 | 0.0 | 0.0 | 0.00 | 0.00 | 0.00 | 81 | 1022.3 | |
| 20260902035446 | 14 | 0.0 | 0.0 | 0.00 | 0.00 | 0.00 | 83 | 1022.3 | |
| 20260902033941 | 14 | 0.0 | 0.0 | 0.00 | 0.00 | 0.00 | 82 | 1022.2 | |
| 20260902032436 | 15 | 0.0 | 0.0 | 0.00 | 0.00 | 0.00 | 80 | 1022.3 | |
| 20260902030930 | 15 | 0.0 | 0.0 | 0.00 | 0.00 | 0.00 | 80 | 1022.2 | |
| 20260902025425 | 15 | 0.0 | 0.0 | 0.00 | 0.00 | 0.00 | 79 | 1022.2 | |
| 20260902023919 | 15 | 0.0 | 0.0 | 0.00 | 0.00 | 0.00 | 80 | 1022.2 | |
| 20260902022414 | 15 | 0.0 | 0.0 | 0.00 | 0.00 | 0.00 | 80 | 1022.2 | |
| 20260902020908 | 15 | 0.0 | 0.0 | 0.00 | 0.00 | 0.00 | 80 | 1022.1 | |
| 20260902015403 | 15 | 0.0 | 0.0 | 0.00 | 0.00 | 0.00 | 80 | 1022.0 | |
| 20260902013858 | 15 | 0.0 | 0.0 | 0.00 | 0.00 | 0.00 | 80 | 1022.0 | |
| 20260902012352 | 15 | 0.0 | 0.0 | 0.00 | 0.00 | 0.00 | 80 | 1022.1 | |
| 20260902010847 | 15 | 0.0 | 0.0 | 0.00 | 0.00 | 0.00 | 79 | 1022.2 | |
| 20260902005341 | 15 | 0.0 | 0.0 | 0.00 | 0.00 | 0.00 | 80 | 1022.2 | |
| 20260902003836 | 15 | 0.0 | 0.0 | 0.00 | 0.00 | 0.00 | 79 | 1022.3 | |
| 20260902002330 | 15 | 0.0 | 0.0 | 0.00 | 0.00 | 0.00 | 79 | 1022.2 | |
| 20260902000826 | 16 | 0.0 | 0.0 | 0.00 | 0.00 | 0.00 | 78 | 1022.3 | |
| 20260901235320 | 16 | 0.0 | 0.0 | 0.00 | 0.00 | 0.00 | 78 | 1022.2 | |
| 20260901233815 | 16 | 0.0 | 0.0 | 0.00 | 0.00 | 0.00 | 77 | 1022.3 | |
| 20260901232309 | 17 | 0.0 | 0.0 | 0.00 | 0.00 | 0.00 | 75 | 1022.4 | |
| 20260901230804 | 17 | 0.0 | 0.0 | 0.00 | 0.00 | 0.00 | 75 | 1022.3 | |
| 20260901225258 | 17 | 0.0 | 0.0 | 0.00 | 0.00 | 0.00 | 76 | 1022.2 | |
| 20260901223753 | 17 | 0.0 | 0.0 | 0.00 | 0.00 | 0.00 | 74 | 1022.2 | |
| 20260901222248 | 17 | 0.0 | 0.0 | 0.00 | 0.00 | 0.00 | 73 | 1022.2 | |
| 20260901220742 | 17 | 0.0 | 0.0 | 0.00 | 0.00 | 0.00 | 72 | 1022.2 | |
| 20260901215237 | 18 | 0.0 | 0.0 | 0.00 | 0.00 | 0.00 | 69 | 1022.3 | |
| 20260901213731 | 18 | 0.0 | 0.0 | 0.00 | 0.00 | 0.00 | 70 | 1022.2 | |
| 20260901212225 | 18 | 0.0 | 0.0 | 0.00 | 0.00 | 0.00 | 70 | 1022.3 | |
| 20260901210720 | 18 | 0.0 | 0.0 | 0.00 | 0.00 | 0.00 | 69 | 1022.3 | |
| 20260901205214 | 19 | 0.0 | 0.0 | 0.00 | 0.00 | 0.00 | 67 | 1022.2 | |
| 20260901203709 | 19 | 0.0 | 0.0 | 0.00 | 0.00 | 0.00 | 67 | 1022.2 | |
| 20260901202204 | 20 | 0.0 | 0.0 | 0.00 | 0.00 | 0.00 | 66 | 1022.2 | |
| 20260901200658 | 20 | 0.0 | 0.0 | 0.00 | 0.00 | 0.00 | 66 | 1022.1 | |
| 20260901195154 | 20 | 0.0 | 0.0 | 0.00 | 0.00 | 0.00 | 64 | 1022.1 | |
| 20260901193649 | 20 | 0.0 | 0.0 | 0.00 | 0.00 | 0.00 | 64 | 1022.2 | |
| 20260901192142 | 20 | 0.0 | 0.0 | 0.00 | 0.00 | 0.00 | 65 | 1022.2 | |
| 20260901190637 | 20 | 0.0 | 0.0 | 0.00 | 0.00 | 0.00 | 64 | 1022.0 | |
| 20260901185131 | 21 | 0.0 | 0.0 | 0.00 | 0.00 | 0.00 | 62 | 1021.9 | |
| 20260901183627 | 21 | 0.0 | 0.0 | 0.00 | 0.00 | 0.00 | 63 | 1021.7 | |
| 20260901182121 | 21 | 0.0 | 0.0 | 0.00 | 0.00 | 0.00 | 61 | 1021.6 | |
| 20260901180616 | 22 | 0.0 | 0.0 | 0.00 | 0.00 | 0.00 | 61 | 1021.6 | |
| 20260901175110 | 22 | 0.0 | 0.0 | 0.00 | 0.00 | 0.00 | 60 | 1021.5 | |
| 20260901173605 | 23 | 0.0 | 0.0 | 0.00 | 0.00 | 0.00 | 60 | 1021.5 | |
| 20260901172059 | 23 | 0.0 | 0.0 | 0.00 | 0.00 | 0.00 | 58 | 1021.3 | |
| 20260901170553 | 23 | 0.0 | 0.0 | 0.00 | 0.00 | 0.00 | 56 | 1021.4 | |
| 20260901165049 | 24 | 0.0 | 0.0 | 0.00 | 0.00 | 0.00 | 52 | 1021.4 | |
| 20260901163544 | 25 | 0.0 | 0.0 | 0.00 | 0.00 | 0.00 | 50 | 1021.6 | |
| 20260901162038 | 25 | 0.0 | 0.0 | 0.00 | 0.00 | 0.00 | 52 | 1021.6 | |
| 20260901160532 | 25 | 0.0 | 0.0 | 0.00 | 0.00 | 0.00 | 52 | 1021.6 | |
| 20260901155027 | 26 | 0.0 | 0.0 | 0.00 | 0.00 | 0.00 | 51 | 1021.7 | |
| 20260901153522 | 26 | 0.0 | 0.0 | 0.00 | 0.00 | 0.00 | 51 | 1021.7 | |
| 20260901152017 | 25 | 0.0 | 0.0 | 0.00 | 0.00 | 0.00 | 54 | 1021.8 | |
| 20260901150512 | 25 | 0.0 | 0.0 | 0.00 | 0.00 | 0.00 | 52 | 1021.7 | |
| 20260901145006 | 25 | 0.0 | 0.0 | 0.00 | 0.00 | 0.00 | 53 | 1021.7 | |
| 20260901143501 | 25 | 0.0 | 0.0 | 0.00 | 0.00 | 0.00 | 52 | 1021.8 | |
| 20260901141955 | 25 | 0.0 | 0.0 | 0.00 | 0.00 | 0.00 | 54 | 1021.7 | |
| 20260901140449 | 25 | 0.0 | 0.0 | 0.00 | 0.00 | 0.00 | 53 | 1021.9 | |
| 20260901134945 | 25 | 0.0 | 0.0 | 0.00 | 0.00 | 0.00 | 52 | 1022.0 | |
| 20260901133439 | 25 | 0.0 | 0.0 | 0.00 | 0.00 | 0.00 | 52 | 1022.0 | |
| 20260901131934 | 25 | 0.0 | 0.0 | 0.00 | 0.00 | 0.00 | 53 | 1022.1 | |
| 20260901130428 | 24 | 0.0 | 0.0 | 0.00 | 0.00 | 0.00 | 55 | 1022.3 | |
| 20260901124923 | 24 | 0.0 | 0.0 | 0.00 | 0.00 | 0.00 | 58 | 1022.4 | |
| 20260901123418 | 24 | 0.0 | 0.0 | 0.00 | 0.00 | 0.00 | 56 | 1022.5 | |
| 20260901121912 | 24 | 0.0 | 0.0 | 0.00 | 0.00 | 0.00 | 57 | 1022.6 |